Temperature
10 10 10 10 10 10 10 10 10 10 10 10 10 10 10 10 10 10 10 10 10 10 10 10 10 10 9 9 9 9 8 8 7 7 7 7 7 7 6 6 6 6 6
9 9 10 9 9 9 9 9 9 10 10 10 10 10 10 10 10 10 10 10 10 10 10 9 9 9 9 9 8 8 8 7 7 6 6 6 6 6 6 5 5 5 5
9 9 9 9 9 9 9 9 9 9 9 9 9 10 10 9 9 10 10 9 9 9 9 9 9 9 8 8 8 7 7 7 6 6 6 6 5 5 5 5 5 5 5
8 8 8 8 8 9 9 9 9 9 9 9 9 9 9 9 9 9 9 9 9 8 8 8 8 8 8 7 7 7 6 6 6 5 5 5 5 4 4 4 4 4 4
7 7 8 8 8 8 8 8 8 8 8 8 8 8 8 8 8 8 8 8 8 8 8 7 7 7 7 7 6 6 5 5 5 5 4 4 4 4 4 4 3 3 3
6 7 7 7 7 7 7 7 7 7 7 7 7 7 7 7 7 7 7 7 7 7 7 7 6 6 6 6 5 5 5 4 4 4 4 4 3 3 3 3 3 2 2
6 6 6 6 6 6 6 6 6 6 7 7 7 7 7 7 7 6 6 6 6 6 6 6 6 5 5 5 5 4 4 4 4 3 3 3 3 3 3 3 2 2 2
5 5 5 5 5 5 5 6 6 6 6 6 6 6 6 6 6 6 6 6 6 5 5 5 5 5 4 4 4 4 3 3 3 3 3 3 2 2 2 2 2 1 1
4 4 4 5 5 5 5 5 5 5 5 5 5 5 5 5 5 5 5 5 5 5 4 4 4 4 4 3 3 3 3 3 2 2 2 2 2 2 1 1 1 1 1
4 4 4 4 4 4 4 4 4 4 5 5 5 5 5 5 5 4 4 4 4 4 4 4 3 3 3 3 3 2 2 2 2 2 1 1 1 1 1 1 0 -0 -0
3 3 3 4 4 4 4 4 4 4 4 4 4 4 4 4 4 4 4 4 4 3 3 3 3 2 2 2 2 2 2 1 1 1 0 0 0 0 0 -0 -0 -1 -1
2 2 3 3 3 3 3 3 3 3 3 3 3 3 3 3 3 3 3 3 3 3 2 2 2 2 2 1 1 1 1 0 0 -0 -0 -0 -0 -1 -1 -1 -1 -1 -1
2 2 2 2 2 2 2 2 2 2 2 2 3 3 3 2 2 2 2 2 2 2 2 2 1 1 1 1 0 0 -0 -0 -0 -1 -1 -1 -1 -1 -1 -1 -1 -2 -2
1 1 1 1 2 2 2 2 2 2 2 2 2 2 2 2 2 2 2 1 1 1 1 1 1 0 -0 -0 -0 -1 -1 -1 -1 -1 -1 -2 -2 -2 -2 -2 -2 -2 -2
0 1 1 1 1 1 1 1 1 1 1 1 1 1 1 1 1 1 1 1 1 0 0 -0 -0 -0 -1 -1 -1 -1 -1 -2 -2 -2 -2 -2 -2 -2 -2 -2 -2 -3 -3
-0 -0 -0 -0 -0 0 0 1 1 1 1 1 1 1 1 1 0 0 0 0 -0 -0 -0 -1 -1 -1 -1 -1 -1 -2 -2 -2 -2 -2 -2 -2 -2 -3 -3 -3 -3 -3 -3
-1 -1 -1 -1 -1 -0 -0 -0 -0 0 0 0 0 -0 -0 -0 -0 -0 -0 -1 -1 -1 -1 -1 -1 -1 -1 -2 -2 -2 -2 -2 -2 -2 -2 -3 -3 -3 -3 -3 -3 -3 -3
-1 -1 -1 -1 -1 -1 -1 -1 -1 -1 -1 -1 -1 -1 -1 -1 -1 -1 -1 -1 -1 -1 -1 -2 -2 -2 -2 -2 -2 -2 -2 -2 -2 -3 -3 -3 -3 -3 -3 -3 -4 -4 -4
-2 -2 -2 -2 -2 -2 -2 -2 -2 -2 -2 -1 -1 -1 -1 -1 -1 -1 -1 -2 -2 -2 -2 -2 -2 -2 -2 -2 -2 -2 -2 -2 -3 -3 -3 -3 -3 -3 -3 -4 -4 -4 -4
-3 -3 -3 -3 -2 -2 -2 -2 -2 -2 -2 -2 -2 -2 -2 -2 -2 -2 -2 -2 -2 -2 -2 -2 -2 -2 -3 -3 -3 -3 -3 -3 -3 -3 -3 -3 -3 -3 -4 -4 -4 -4 -4
-3 -3 -3 -3 -3 -3 -3 -3 -3 -3 -3 -3 -3 -3 -3 -3 -3 -3 -3 -3 -3 -3 -3 -3 -3 -3 -3 -3 -3 -3 -3 -3 -3 -3 -3 -3 -4 -4 -4 -4 -4 -5 -5
-4 -4 -4 -4 -4 -4 -4 -4 -4 -4 -4 -4 -3 -3 -3 -3 -3 -3 -3 -3 -3 -3 -3 -3 -3 -3 -3 -3 -3 -4 -4 -4 -4 -4 -4 -4 -4 -4 -4 -4 -5 -5 -5
-4 -4 -4 -4 -4 -4 -4 -4 -4 -4 -4 -4 -4 -4 -4 -4 -4 -4 -4 -4 -4 -4 -4 -4 -4 -4 -4 -4 -4 -4 -4 -4 -4 -4 -4 -4 -5 -5 -5 -5 -5 -5 -5
-5 -5 -5 -5 -5 -5 -5 -5 -5 -5 -5 -5 -5 -5 -5 -5 -4 -4 -4 -4 -4 -4 -4 -4 -4 -4 -4 -4 -4 -4 -4 -4 -5 -5 -5 -5 -5 -5 -5 -6 -6 -6 -6
-5 -5 -5 -5 -5 -5 -5 -5 -5 -5 -5 -5 -5 -5 -5 -5 -5 -5 -5 -5 -5 -5 -5 -5 -5 -5 -5 -5 -5 -5 -5 -5 -5 -5 -5 -5 -6 -6 -6 -6 -6 -7 -7
-6 -6 -6 -6 -6 -6 -6 -6 -6 -6 -6 -6 -6 -6 -6 -6 -6 -5 -5 -5 -5 -5 -5 -5 -5 -5 -5 -5 -5 -5 -5 -5 -5 -5 -6 -6 -6 -6 -6 -7 -7 -7 -7
Wind_Speed
2 0 0 1 2 3 3 4 4 5 6 7 7 7 8 8 8 8 8 7 7 7 6 6 6 5 4 3 3 3 4 4 6 3 1 1 2 2 1 1 1 2 2
3 2 1 1 1 2 2 3 3 4 4 6 6 6 7 7 8 9 8 8 8 7 7 7 6 5 5 4 4 4 4 4 5 5 3 2 2 2 2 1 1 2 2
3 2 2 2 1 1 2 2 3 3 4 4 5 6 6 6 6 7 7 7 7 7 7 7 7 7 6 4 4 4 3 3 3 4 3 1 1 1 2 2 2 2 2
3 2 2 2 2 2 2 2 2 3 3 4 4 5 5 5 6 5 5 6 6 5 5 6 6 7 7 6 5 4 4 4 4 4 3 2 2 1 2 2 2 2 2
4 3 3 2 2 2 1 2 2 2 3 3 4 4 4 4 5 6 6 6 6 6 5 5 5 5 5 4 4 4 4 4 4 3 3 2 2 2 2 2 2 2 2
4 4 3 3 2 2 2 2 2 2 3 3 4 5 5 4 6 7 6 6 6 6 6 5 5 5 5 5 5 4 3 4 4 4 3 4 4 3 2 2 2 2 2
4 4 3 3 3 3 2 2 3 3 3 3 4 4 5 5 8 8 7 6 6 6 6 6 4 4 6 5 5 4 3 2 3 4 5 4 3 3 3 3 3 3 2
4 4 4 3 3 3 3 3 3 3 3 4 4 5 5 5 8 9 9 6 5 6 6 6 6 6 6 6 5 4 3 2 2 2 3 2 1 2 2 3 2 2 2
5 5 5 4 4 3 3 3 3 3 3 3 4 5 5 5 8 9 8 5 5 5 5 6 6 6 8 8 6 5 4 2 2 2 2 2 2 2 2 2 2 2 2
6 6 5 5 4 4 4 4 3 3 3 3 3 4 5 5 8 9 9 5 6 5 4 5 6 7 9 9 7 6 6 4 4 4 3 3 3 3 3 2 2 2 2
6 6 5 5 4 4 3 3 3 2 3 3 3 3 4 5 7 9 9 6 6 5 5 4 5 9 10 9 8 6 6 5 4 4 3 3 3 2 2 2 2 2 2
6 5 5 5 4 3 3 2 2 3 3 3 3 3 3 4 6 8 9 8 7 6 5 5 5 9 9 9 8 7 8 6 4 4 4 4 3 3 2 2 2 1 1
6 6 5 5 4 4 3 2 2 3 3 3 3 3 3 2 4 7 8 8 8 6 5 6 7 8 8 7 9 9 8 5 5 5 5 4 3 3 3 2 2 1 1
6 6 5 4 4 4 2 2 2 3 3 3 3 3 3 3 3 4 4 5 6 5 5 6 8 8 6 6 6 6 5 5 5 5 4 3 3 3 4 3 3 2 2
6 5 5 4 4 3 3 2 3 3 3 3 3 3 4 4 5 7 5 5 5 5 5 4 4 5 5 5 5 5 5 5 5 5 4 4 4 4 4 4 3 3 4
5 5 4 4 4 3 3 3 2 3 3 3 3 3 3 4 5 7 7 7 8 9 6 5 6 6 6 6 6 6 6 6 6 5 5 5 5 5 5 4 4 5 5
6 5 4 4 4 3 3 3 2 2 2 3 3 4 4 4 5 7 7 8 9 9 6 5 6 6 6 6 6 6 6 6 5 6 6 6 5 5 5 5 6 6 6
6 5 5 4 4 3 3 3 3 2 2 2 2 3 4 4 5 5 6 6 6 7 5 6 6 6 6 6 6 6 6 5 6 6 6 6 6 6 6 6 6 7 6
5 4 4 4 3 3 3 3 3 3 3 2 2 2 3 3 4 5 5 4 4 5 5 5 5 5 5 5 6 6 6 6 6 6 6 7 7 7 7 7 7 9 8
5 5 5 4 3 3 3 3 3 2 2 2 2 2 1 2 2 3 3 3 3 4 4 5 4 4 5 5 5 5 5 6 6 6 6 6 6 7 7 8 7 7 7
4 4 5 4 3 3 3 3 3 3 3 3 3 3 3 2 3 3 3 3 3 4 4 4 4 4 4 4 4 5 5 5 6 6 6 6 7 7 7 7 7 7 7
4 4 4 4 3 3 3 3 3 3 3 3 3 3 4 3 2 3 3 3 3 3 3 3 3 4 4 4 4 5 6 6 5 5 6 6 6 7 7 7 7 7 7
4 4 4 4 3 3 3 3 3 3 3 3 3 3 3 3 3 3 3 3 3 3 3 3 3 4 4 4 5 5 6 6 5 5 6 6 6 6 7 7 8 8 8
4 4 4 4 3 3 3 3 3 3 3 3 3 3 3 3 3 3 3 3 3 3 3 3 4 5 6 5 6 7 7 7 7 7 7 6 6 6 6 7 7 9 9
4 4 4 4 3 3 3 3 3 3 3 3 3 3 3 3 3 3 3 3 4 4 4 4 4 5 6 7 7 7 9 10 9 8 7 7 7 7 7 7 7 7 8
3 4 4 3 3 3 3 3 3 3 3 3 3 3 3 3 4 4 3 3 3 3 4 4 5 6 7 7 8 9 10 11 11 11 9 6 7 7 7 7 8 8 8
Wind_Direction
17 5 183 237 230 201 206 212 212 209 204 205 205 203 200 197 196 197 197 196 198 200 193 191 194 189 190 194 202 212 223 230 245 245 208 213 225 231 235 280 303 305 309
1 359 355 303 252 190 201 218 220 214 211 210 208 205 201 198 198 199 196 193 194 195 193 189 191 186 192 194 197 207 215 223 237 242 230 222 241 246 257 270 291 297 295
359 2 343 319 289 233 222 227 226 218 215 212 206 202 196 194 194 197 193 190 190 191 193 191 191 188 194 193 199 204 207 212 228 234 229 216 239 240 264 267 261 263 289
349 348 332 310 287 264 245 235 226 218 214 213 208 204 196 192 190 187 184 183 183 183 185 188 188 192 194 189 194 198 199 206 212 221 218 216 228 233 244 253 248 250 261
344 340 331 315 298 275 250 243 237 227 221 214 207 198 193 192 192 187 184 181 177 172 174 179 178 180 180 181 185 189 194 206 208 212 218 218 221 222 232 231 255 268 249
340 335 330 318 304 284 272 258 240 230 223 213 207 197 193 192 178 180 181 177 174 174 173 168 162 164 163 166 168 177 196 207 210 212 221 223 225 223 220 226 242 249 243
332 327 321 310 297 288 274 257 246 238 229 220 214 203 198 187 178 181 180 179 179 177 174 171 168 168 167 164 159 161 175 203 230 226 226 228 224 210 208 220 227 246 256
330 327 323 307 292 282 269 257 251 241 229 222 213 204 197 191 182 181 175 179 177 177 179 178 177 177 177 170 169 171 173 176 203 223 228 227 218 196 205 213 221 238 262
333 328 322 310 292 277 268 262 256 245 232 222 211 204 199 194 185 181 176 173 172 175 178 180 181 185 180 177 178 179 182 176 146 141 131 141 142 161 175 176 191 220 240
328 323 317 309 297 284 274 270 264 247 230 213 210 211 206 200 185 185 183 176 174 174 176 181 190 193 185 188 192 190 198 193 174 165 164 163 170 171 184 205 206 223 237
324 321 319 315 309 296 283 273 257 231 219 211 209 210 204 198 190 192 192 188 181 179 184 189 192 192 195 198 201 203 203 188 184 189 193 189 188 189 194 200 203 216 228
322 318 318 320 317 301 285 275 254 225 214 209 202 205 204 196 197 195 197 197 187 188 194 195 192 190 197 203 204 198 191 190 189 195 205 206 203 203 194 187 189 213 241
319 316 316 318 314 307 290 270 254 227 214 208 203 207 207 200 195 197 197 197 198 202 200 193 189 193 199 206 206 198 195 196 196 206 215 216 206 187 173 167 170 182 236
313 311 310 311 311 311 305 275 250 237 226 218 212 211 211 208 200 193 189 190 196 201 195 191 194 199 203 198 197 201 202 203 206 215 217 206 182 184 196 195 201 200 229
312 310 309 305 303 302 295 284 267 258 243 229 226 218 211 223 217 201 196 193 190 186 171 172 184 187 197 201 202 205 204 204 211 212 208 204 202 203 206 197 202 206 223
306 308 307 302 302 300 297 300 297 265 278 276 259 243 245 241 221 214 212 209 200 187 181 189 199 202 207 208 208 208 208 209 211 209 209 210 210 210 208 201 206 216 230
296 296 295 292 292 295 293 285 291 301 263 259 258 252 248 241 231 222 213 209 206 200 205 206 209 210 211 212 212 212 213 209 203 205 209 212 212 212 212 212 212 220 230
296 291 289 287 286 285 282 277 271 268 276 286 259 246 248 241 230 221 210 205 209 209 214 215 216 213 212 214 214 214 213 207 202 208 211 211 210 212 216 219 218 222 229
295 293 290 287 283 278 274 271 267 264 263 275 286 257 239 236 228 221 210 214 213 216 218 221 221 217 217 217 216 214 212 211 207 206 211 211 210 212 220 223 225 225 227
290 294 293 286 280 276 271 268 269 265 265 265 267 277 269 254 238 223 218 220 225 228 225 225 224 220 219 219 215 212 213 214 210 211 213 213 212 214 221 223 224 225 226
291 292 291 287 278 272 269 266 265 262 260 262 267 273 261 258 247 240 233 229 233 235 233 229 227 225 224 222 217 216 219 221 217 216 216 215 213 216 221 223 224 226 230
291 289 288 284 279 272 270 269 268 266 264 266 272 272 262 259 252 252 249 246 244 242 239 235 236 234 228 222 220 219 223 226 225 221 221 219 217 219 220 222 223 224 227
290 291 289 283 276 269 269 266 262 264 268 268 269 272 268 260 260 260 261 265 262 258 251 242 241 240 236 231 227 223 227 229 227 220 219 221 222 223 222 224 225 228 229
291 291 292 291 284 276 270 268 266 268 269 270 270 269 268 267 267 267 268 271 270 264 254 246 244 245 241 240 237 234 235 236 231 226 221 222 225 229 229 230 232 232 234
294 294 294 294 289 284 281 277 274 273 271 269 268 269 269 269 269 270 270 269 269 267 261 254 251 251 250 247 246 245 246 243 237 231 222 223 228 228 230 234 236 238 237
295 293 293 292 289 283 279 277 278 278 275 274 273 272 271 269 268 268 269 267 268 267 266 259 253 255 258 257 255 255 256 252 246 239 231 228 228 230 231 235 238 239 243
Height
1468 1469 1469 1470 1470 1471 1473 1474 1476 1477 1478 1480 1482 1484 1485 1487 1489 1491 1493 1494 1496 1498 1499 1500 1501 1503 1504 1504 1505 1506 1506 1506 1506 1505 1505 1504 1504 1503 1502 1501 1501 1500 1499
1467 1467 1467 1467 1467 1468 1470 1471 1472 1473 1474 1476 1477 1479 1481 1482 1484 1486 1487 1489 1490 1492 1493 1495 1496 1497 1498 1499 1500 1500 1501 1501 1501 1500 1499 1499 1499 1499 1498 1497 1496 1496 1495
1466 1465 1465 1465 1465 1465 1466 1467 1468 1469 1470 1472 1473 1474 1475 1477 1479 1480 1482 1483 1485 1486 1488 1489 1491 1492 1492 1493 1494 1494 1495 1495 1495 1495 1495 1495 1494 1494 1494 1493 1492 1492 1491
1464 1463 1463 1463 1462 1462 1463 1464 1465 1465 1466 1467 1468 1469 1470 1472 1474 1475 1477 1478 1479 1481 1482 1483 1485 1486 1487 1488 1488 1489 1489 1489 1490 1490 1490 1490 1489 1489 1489 1489 1488 1488 1488
1462 1461 1460 1460 1460 1460 1460 1460 1461 1461 1462 1463 1464 1464 1466 1467 1469 1470 1472 1473 1474 1475 1477 1478 1479 1480 1481 1482 1483 1484 1485 1485 1485 1485 1485 1485 1485 1485 1486 1485 1485 1484 1484
1459 1458 1458 1457 1457 1457 1456 1456 1457 1457 1458 1459 1459 1460 1461 1462 1464 1465 1467 1468 1469 1470 1472 1473 1474 1475 1477 1478 1479 1479 1480 1481 1481 1481 1481 1481 1481 1482 1482 1481 1481 1481 1480
1457 1456 1455 1454 1454 1453 1453 1453 1453 1453 1454 1454 1455 1456 1456 1458 1459 1461 1462 1463 1464 1466 1467 1468 1469 1471 1472 1473 1474 1475 1476 1477 1477 1478 1478 1477 1478 1478 1478 1478 1478 1478 1477
1455 1454 1452 1451 1450 1450 1449 1449 1449 1449 1449 1449 1450 1451 1452 1453 1455 1456 1457 1458 1460 1461 1463 1464 1465 1466 1468 1469 1469 1471 1471 1472 1473 1473 1474 1474 1474 1474 1474 1474 1474 1474 1474
1453 1451 1450 1448 1447 1446 1446 1445 1445 1445 1445 1445 1446 1447 1448 1449 1451 1452 1453 1454 1456 1457 1459 1460 1461 1462 1464 1464 1466 1466 1467 1468 1469 1469 1469 1470 1470 1470 1470 1470 1470 1470 1470
1451 1449 1447 1446 1444 1443 1442 1441 1441 1441 1441 1442 1443 1444 1444 1445 1447 1448 1449 1450 1452 1453 1454 1455 1457 1458 1460 1461 1462 1463 1463 1464 1465 1465 1465 1465 1466 1466 1466 1467 1467 1467 1467
1448 1446 1445 1443 1442 1440 1439 1438 1438 1438 1438 1438 1439 1440 1441 1442 1443 1444 1445 1446 1447 1448 1450 1451 1453 1455 1456 1457 1458 1459 1460 1461 1461 1461 1461 1462 1462 1462 1463 1463 1463 1464 1464
1445 1443 1442 1440 1439 1437 1436 1435 1434 1434 1434 1435 1435 1436 1437 1438 1439 1440 1441 1442 1443 1445 1447 1448 1450 1451 1452 1453 1454 1455 1456 1456 1457 1457 1457 1458 1458 1459 1459 1459 1460 1460 1460
1442 1440 1439 1437 1435 1434 1433 1432 1431 1431 1431 1431 1432 1432 1433 1434 1435 1436 1437 1438 1440 1442 1443 1445 1446 1447 1448 1449 1450 1451 1452 1452 1453 1453 1453 1454 1455 1455 1456 1456 1456 1456 1456
1439 1437 1435 1434 1432 1431 1430 1429 1429 1428 1428 1428 1428 1429 1429 1430 1431 1433 1434 1435 1436 1438 1439 1441 1442 1443 1444 1445 1446 1447 1447 1448 1448 1449 1449 1450 1451 1452 1452 1452 1452 1452 1452
1436 1434 1432 1431 1429 1428 1427 1427 1426 1426 1425 1425 1425 1426 1426 1427 1428 1429 1430 1431 1432 1434 1435 1436 1437 1438 1439 1440 1441 1442 1443 1444 1444 1445 1445 1446 1447 1447 1448 1448 1448 1448 1448
1433 1431 1429 1428 1426 1425 1424 1424 1423 1423 1423 1422 1422 1423 1423 1424 1425 1425 1427 1428 1429 1430 1432 1432 1433 1434 1435 1436 1437 1438 1439 1439 1440 1440 1441 1442 1442 1443 1443 1444 1444 1444 1444
1430 1428 1427 1425 1424 1422 1421 1421 1420 1420 1420 1419 1419 1419 1419 1420 1421 1422 1423 1424 1425 1426 1427 1428 1429 1430 1431 1432 1433 1434 1434 1435 1435 1436 1437 1437 1438 1438 1439 1439 1439 1440 1440
1427 1425 1424 1422 1421 1419 1419 1418 1417 1417 1416 1416 1416 1416 1416 1417 1417 1418 1419 1420 1421 1422 1423 1424 1425 1426 1427 1427 1428 1429 1429 1430 1431 1431 1432 1433 1433 1434 1434 1434 1435 1435 1435
1424 1422 1421 1419 1418 1417 1416 1415 1414 1414 1413 1413 1413 1413 1414 1414 1414 1415 1415 1416 1417 1418 1419 1420 1420 1421 1422 1423 1423 1424 1425 1425 1426 1427 1427 1428 1428 1429 1429 1429 1430 1430 1430
1421 1419 1418 1416 1415 1414 1413 1412 1411 1411 1410 1410 1410 1410 1410 1411 1411 1411 1412 1412 1413 1413 1414 1415 1416 1417 1417 1418 1418 1419 1420 1420 1421 1422 1422 1423 1423 1423 1424 1424 1424 1424 1424
1417 1416 1415 1413 1412 1411 1410 1409 1409 1408 1408 1407 1407 1407 1407 1408 1408 1408 1408 1408 1409 1409 1410 1410 1411 1411 1412 1413 1413 1414 1415 1415 1416 1416 1417 1417 1418 1418 1418 1418 1419 1419 1419
1414 1413 1411 1410 1409 1408 1407 1407 1406 1405 1405 1404 1404 1404 1404 1404 1404 1404 1404 1404 1405 1405 1405 1405 1406 1406 1407 1407 1408 1408 1409 1409 1410 1411 1411 1411 1412 1412 1412 1413 1413 1413 1413
1411 1409 1408 1407 1406 1405 1404 1404 1403 1402 1402 1401 1401 1401 1400 1400 1400 1400 1400 1401 1401 1401 1401 1401 1401 1401 1401 1402 1402 1403 1403 1403 1404 1405 1405 1405 1406 1406 1406 1406 1406 1407 1407
1408 1406 1405 1404 1403 1402 1401 1400 1400 1399 1398 1398 1397 1397 1397 1397 1397 1397 1397 1397 1396 1396 1396 1396 1396 1396 1396 1397 1397 1397 1397 1397 1398 1398 1399 1399 1399 1400 1400 1400 1400 1400 1401
1404 1403 1402 1401 1400 1399 1398 1397 1397 1396 1395 1395 1394 1394 1393 1393 1393 1393 1393 1393 1392 1392 1392 1392 1391 1391 1391 1391 1391 1391 1391 1392 1392 1392 1392 1393 1393 1393 1394 1394 1394 1394 1394
1401 1400 1399 1398 1397 1396 1395 1394 1393 1393 1392 1391 1391 1390 1390 1390 1389 1389 1389 1389 1388 1388 1388 1387 1387 1387 1386 1386 1386 1386 1386 1386 1386 1386 1386 1386 1387 1387 1387 1387 1387 1387 1387